Total_Precipitation_Accumulation
0.00 0.00 0.00 0.00 0.00 0.00 0.01 0.02 0.12 0.10 0.11 0.08 0.03 0.01 0.01 0.01 0.01 0.01 0.01 0.01 0.01 0.01 0.01 0.02 0.02 0.04 0.10 0.15 0.15 0.22 0.42 0.53 0.42 0.25 0.16 0.09 0.07 0.08 0.11 0.18 0.24 0.34 0.48 0.58
0.00 0.01 0.01 0.01 0.01 0.01 0.01 0.01 0.02 0.03 0.05 0.02 0.02 0.02 0.02 0.02 0.02 0.02 0.02 0.02 0.02 0.02 0.01 0.02 0.03 0.03 0.04 0.07 0.12 0.20 0.36 0.47 0.41 0.29 0.16 0.08 0.05 0.05 0.09 0.13 0.18 0.25 0.31 0.31
0.01 0.02 0.01 0.06 0.03 0.02 0.01 0.02 0.03 0.04 0.05 0.03 0.04 0.04 0.04 0.05 0.04 0.03 0.02 0.02 0.01 0.01 0.01 0.01 0.03 0.04 0.05 0.06 0.09 0.20 0.34 0.43 0.42 0.35 0.23 0.15 0.07 0.07 0.09 0.10 0.14 0.18 0.18 0.18
0.01 0.01 0.05 0.07 0.01 0.01 0.02 0.03 0.03 0.04 0.05 0.05 0.06 0.05 0.05 0.06 0.04 0.02 0.01 0.01 0.01 0.01 0.01 0.01 0.01 0.03 0.04 0.06 0.08 0.16 0.27 0.38 0.43 0.39 0.33 0.29 0.17 0.13 0.12 0.13 0.18 0.22 0.19 0.17
0.01 0.01 0.04 0.03 0.02 0.03 0.03 0.04 0.05 0.06 0.06 0.06 0.05 0.04 0.04 0.03 0.02 0.01 0.01 0.01 0.01 0.01 0.02 0.02 0.02 0.02 0.03 0.04 0.07 0.13 0.21 0.34 0.42 0.39 0.35 0.31 0.27 0.22 0.21 0.25 0.24 0.23 0.22 0.21
0.01 0.02 0.05 0.05 0.04 0.07 0.07 0.12 0.09 0.06 0.04 0.03 0.03 0.05 0.02 0.01 0.01 0.01 0.01 0.01 0.01 0.01 0.01 0.02 0.02 0.03 0.04 0.05 0.10 0.17 0.21 0.30 0.42 0.48 0.48 0.46 0.40 0.32 0.29 0.36 0.32 0.28 0.26 0.28
0.03 0.06 0.06 0.03 0.04 0.05 0.10 0.14 0.04 0.02 0.02 0.03 0.06 0.09 0.05 0.02 0.01 0.01 0.01 0.01 0.02 0.02 0.02 0.03 0.04 0.05 0.09 0.12 0.17 0.20 0.22 0.27 0.37 0.52 0.57 0.56 0.55 0.48 0.43 0.42 0.44 0.43 0.39 0.40
0.04 0.08 0.11 0.02 0.02 0.04 0.06 0.04 0.04 0.05 0.05 0.06 0.05 0.03 0.02 0.01 0.01 0.01 0.01 0.01 0.02 0.03 0.03 0.04 0.07 0.13 0.20 0.26 0.27 0.27 0.30 0.36 0.43 0.52 0.44 0.44 0.59 0.62 0.61 0.61 0.61 0.59 0.54 0.50
0.06 0.07 0.03 0.01 0.02 0.03 0.04 0.07 0.07 0.07 0.05 0.03 0.03 0.02 0.02 0.02 0.02 0.02 0.02 0.03 0.04 0.05 0.07 0.10 0.17 0.29 0.39 0.39 0.38 0.36 0.37 0.41 0.46 0.52 0.57 0.64 0.68 0.70 0.70 0.70 0.71 0.67 0.62 0.59
0.07 0.04 0.02 0.02 0.03 0.03 0.03 0.04 0.03 0.02 0.02 0.02 0.03 0.04 0.04 0.04 0.03 0.03 0.02 0.03 0.04 0.09 0.16 0.24 0.34 0.45 0.50 0.48 0.45 0.42 0.40 0.41 0.46 0.53 0.59 0.65 0.75 0.80 0.80 0.76 0.77 0.76 0.67 0.62
0.07 0.05 0.03 0.04 0.04 0.02 0.01 0.01 0.01 0.01 0.01 0.02 0.04 0.06 0.06 0.06 0.05 0.04 0.03 0.04 0.07 0.13 0.21 0.30 0.42 0.52 0.52 0.50 0.52 0.51 0.48 0.47 0.47 0.51 0.60 0.67 0.74 0.80 0.88 0.92 0.81 0.79 0.69 0.60
0.07 0.06 0.07 0.07 0.03 0.02 0.02 0.02 0.03 0.03 0.03 0.03 0.05 0.06 0.06 0.06 0.05 0.05 0.04 0.06 0.12 0.19 0.24 0.28 0.39 0.53 0.56 0.59 0.63 0.64 0.60 0.54 0.51 0.53 0.60 0.68 0.75 0.74 0.67 0.72 0.60 0.56 0.55 0.48
0.04 0.03 0.04 0.03 0.02 0.03 0.03 0.03 0.04 0.04 0.04 0.04 0.05 0.05 0.04 0.04 0.04 0.04 0.05 0.08 0.16 0.24 0.30 0.33 0.39 0.50 0.58 0.69 0.77 0.78 0.72 0.66 0.60 0.56 0.59 0.64 0.71 0.80 0.83 0.70 0.58 0.50 0.45 0.37
0.02 0.02 0.02 0.02 0.02 0.02 0.02 0.02 0.03 0.04 0.05 0.05 0.05 0.05 0.05 0.04 0.05 0.07 0.10 0.15 0.21 0.29 0.35 0.40 0.47 0.52 0.59 0.73 0.82 0.81 0.79 0.71 0.64 0.61 0.59 0.61 0.67 0.78 0.92 0.91 0.72 0.57 0.48 0.38
0.01 0.02 0.03 0.02 0.01 0.01 0.02 0.02 0.03 0.05 0.06 0.05 0.05 0.05 0.05 0.06 0.07 0.10 0.15 0.24 0.36 0.41 0.42 0.46 0.53 0.55 0.67 0.83 0.88 0.82 0.76 0.71 0.65 0.64 0.63 0.60 0.66 0.73 0.82 0.87 0.81 0.73 0.63 0.47
0.00 0.00 0.01 0.01 0.02 0.02 0.02 0.02 0.02 0.03 0.04 0.05 0.05 0.04 0.04 0.06 0.09 0.13 0.21 0.38 0.60 0.62 0.56 0.53 0.53 0.55 0.71 0.89 0.91 0.86 0.73 0.56 0.52 0.56 0.60 0.62 0.66 0.71 0.73 0.76 0.78 0.75 0.65 0.46
0.01 0.00 0.00 0.01 0.01 0.02 0.02 0.02 0.03 0.03 0.04 0.06 0.05 0.05 0.05 0.09 0.16 0.24 0.36 0.48 0.58 0.58 0.57 0.58 0.53 0.51 0.65 0.81 0.87 0.83 0.72 0.56 0.40 0.41 0.50 0.57 0.64 0.66 0.66 0.63 0.66 0.63 0.53 0.36
0.00 0.00 0.00 0.00 0.01 0.02 0.02 0.03 0.03 0.03 0.04 0.06 0.09 0.11 0.14 0.23 0.37 0.51 0.62 0.65 0.62 0.52 0.49 0.52 0.46 0.47 0.60 0.66 0.74 0.79 0.71 0.59 0.45 0.41 0.46 0.54 0.59 0.62 0.59 0.52 0.52 0.50 0.42 0.29
0.00 0.00 0.00 0.00 0.00 0.01 0.02 0.03 0.03 0.04 0.04 0.08 0.13 0.19 0.26 0.37 0.53 0.67 0.75 0.84 0.84 0.70 0.55 0.48 0.38 0.43 0.55 0.57 0.61 0.73 0.70 0.58 0.46 0.41 0.46 0.48 0.50 0.54 0.51 0.44 0.41 0.37 0.29 0.21
0.00 0.00 0.00 0.00 0.00 0.00 0.01 0.03 0.05 0.06 0.08 0.13 0.20 0.26 0.36 0.51 0.69 0.82 0.87 0.89 0.88 0.83 0.65 0.50 0.44 0.44 0.48 0.54 0.60 0.65 0.65 0.59 0.47 0.43 0.46 0.50 0.47 0.45 0.40 0.36 0.31 0.25 0.19 0.13
0.00 0.00 0.00 0.00 0.00 0.00 0.01 0.03 0.07 0.11 0.16 0.21 0.29 0.38 0.49 0.63 0.78 0.93 1.12 1.10 0.88 0.77 0.63 0.49 0.44 0.42 0.44 0.50 0.57 0.62 0.64 0.64 0.54 0.43 0.43 0.44 0.40 0.35 0.32 0.29 0.22 0.16 0.11 0.07
0.00 0.00 0.00 0.01 0.01 0.02 0.03 0.05 0.10 0.19 0.28 0.34 0.36 0.44 0.58 0.71 0.85 0.98 1.06 1.20 1.07 0.89 0.65 0.49 0.41 0.37 0.38 0.45 0.51 0.57 0.59 0.60 0.53 0.42 0.36 0.34 0.31 0.28 0.27 0.21 0.14 0.09 0.07 0.06
0.00 0.01 0.02 0.02 0.04 0.05 0.05 0.07 0.14 0.26 0.40 0.49 0.51 0.59 0.73 0.78 0.91 1.20 1.26 1.11 1.05 0.91 0.63 0.47 0.42 0.34 0.31 0.37 0.45 0.50 0.52 0.51 0.48 0.37 0.26 0.22 0.21 0.22 0.19 0.13 0.09 0.06 0.05 0.05
0.01 0.02 0.02 0.03 0.05 0.07 0.11 0.15 0.22 0.32 0.41 0.46 0.46 0.53 0.69 0.77 0.77 0.83 1.03 1.12 1.06 0.91 0.65 0.50 0.41 0.32 0.27 0.28 0.40 0.48 0.48 0.46 0.43 0.32 0.20 0.15 0.16 0.18 0.14 0.09 0.06 0.05 0.04 0.03
0.02 0.02 0.03 0.04 0.09 0.17 0.26 0.34 0.43 0.48 0.52 0.52 0.45 0.42 0.51 0.64 0.73 0.69 0.71 0.82 0.93 0.83 0.68 0.55 0.44 0.39 0.31 0.28 0.34 0.41 0.42 0.40 0.36 0.27 0.17 0.15 0.17 0.17 0.13 0.07 0.05 0.04 0.03 0.02
0.02 0.02 0.03 0.05 0.11 0.24 0.39 0.56 0.71 0.73 0.74 0.73 0.58 0.43 0.42 0.46 0.48 0.50 0.54 0.58 0.66 0.70 0.65 0.60 0.48 0.40 0.35 0.33 0.34 0.38 0.42 0.41 0.33 0.25 0.21 0.20 0.19 0.16 0.12 0.07 0.04 0.03 0.02 0.01
0.01 0.02 0.03 0.06 0.15 0.28 0.44 0.60 0.76 0.81 0.81 0.82 0.68 0.46 0.37 0.37 0.35 0.36 0.40 0.46 0.52 0.56 0.56 0.53 0.46 0.36 0.31 0.31 0.32 0.34 0.36 0.35 0.30 0.25 0.21 0.17 0.15 0.12 0.08 0.05 0.04 0.03 0.02 0.02